Regional Weather Roundup
Issued by NWS

Home | Current Version | Previous Version | Text Only | Print | Product List | Glossary On
Versions: 1 2 3 4 5 6 7 8 9 10 11 12 13 14 15 16 17 18 19 20 21 22 23 24 25 26 27 28 29 30 31 32 33 34 35 36 37 38 39 40 41 42 43 44 45 46 47 48 49 50
000
ASUS45 KTFX 250710
RWRMT
MONTANA REGIONAL WEATHER ROUNDUP
NATIONAL WEATHER SERVICE GREAT FALLS MT
100 AM MDT THU MAY 25 2017

NOTE: "FAIR" INDICATES FEW OR NO CLOUDS BELOW 12000 FEET WITH NO
SIGNIFICANT WEATHER AND/OR OBSTRUCTIONS TO VISIBILITY.

MTZ001>007-043-250800-
WEST OF THE DIVIDE

CITY           SKY/WX    TMP DP  RH WIND       PRES   REMARKS
KALISPELL      CLOUDY    46  41  82 S3        29.71S
MISSOULA       CLOUDY    48  33  56 NW5       29.73S
BUTTE          CLEAR     40  19  43 NW6       29.71R
MULLAN PASS    CLOUDY    34  27  75 VRB5      29.72F
ANACONDA         N/A     43  18  36 CALM      29.71R
DEER LODGE       N/A     45  23  42 NW7       29.72S
EUREKA           N/A     45  39  81 CALM      29.71S
HAMILTON         N/A     50  27  40 CALM      29.74S
PLAINS           N/A     48  36  63 CALM      29.74S
RONAN            N/A     47  35  63 CALM      29.78F
$$

MTZ008-052>055-250800-
SOUTHWEST MONTANA

CITY           SKY/WX    TMP DP  RH WIND       PRES   REMARKS
BOZEMAN        CLEAR     43  22  43 W7        29.66R
DILLON         CLEAR     42  17  36 NE9       29.69R
W YELLOWSTONE  CLEAR     28  21  74 CALM      29.65R
ENNIS          MOCLDY    36  19  51 NE8       29.71S WCI  29
THREE FORKS      N/A     39  24  55 CALM      29.69R
TWIN BRIDGES     N/A     44  16  32 W2        29.72R
$$

MTZ009-010-012-014-046-048-049-054-250800-
EAST SLOPES AND CENTRAL MONTANA

CITY           SKY/WX    TMP DP  RH WIND       PRES   REMARKS
CUT BANK       LGT RAIN  42  38  85 W30G39    29.53R
GREAT FALLS    LGT RAIN  43  36  76 W25G35    29.57R
MALMSTROM AFB  LGT RAIN  45  37  74 W23       29.57R
HELENA         CLOUDY    50  26  39 W15G28    29.63R
CHOTEAU          N/A     46  30  53 W17G25    29.56F
CONRAD           N/A     49  44  83 W26       29.59S
$$

MTZ011-013-016-021-045-047-050-051-250800-
NORTH CENTRAL MONTANA

CITY           SKY/WX    TMP DP  RH WIND       PRES   REMARKS
HAVRE          CLOUDY    45  40  82 W36G46    29.33F
LEWISTOWN      PTCLDY    45  22  40 W21G33    29.50F
N BAR RANCH      N/A     46  18  31 W16       29.49F
CHINOOK          N/A     46  39  76 SW24G40   29.30F
FORT BENTON      N/A     46  39  76 CALM      29.50F
$$

MTZ017>020-022>027-061-062-250800-
NORTHEAST MONTANA

CITY           SKY/WX    TMP DP  RH WIND       PRES   REMARKS
GLASGOW        PTCLDY    47  21  35 W8        29.35F
JORDAN           N/A     41  20  43 SE3       29.41F
SIDNEY         CLEAR     48  47  96 S6        29.39F
WOLF POINT     CLEAR     42  23  46 SW7       29.36S
MALTA          MOCLDY    50  36  57 W32G40    29.32F
PLENTYWOOD       N/A     50  27  40 W6        29.33S
SCOBEY           N/A     44  20  38 SW2       29.36S
$$

MTZ028>42-056>058-250800-
SOUTHCENTRAL AND SOUTHEAST MONTANA

CITY           SKY/WX    TMP DP  RH WIND       PRES   REMARKS
BAKER          CLEAR     49  45  86 NE3       29.44S
BILLINGS       CLEAR     47  21  35 W8        29.53S
LIVINGSTON     CLEAR     46  19  34 W16G25    29.61R
MILES CITY     CLEAR     48  22  35 W6        29.45S
BIG TIMBER     CLEAR     46  19  34 W23G31    29.58F
EKALAKA          N/A     47  39  73 NW3       29.48R
FORSYTH          N/A     55  19  24 CALM      29.48S
LAUREL           N/A     42  21  43 W5        29.57R
ROUNDUP          N/A     46  18  33 S7        29.45F
$$

REGIONAL REPORTS...DAKOTAS

CITY           SKY/WX    TMP DP  RH WIND       PRES   REMARKS
WILLISTON      CLEAR     53  50  89 S8        29.37F
MINOT          LGT RAIN  57  50  77 SE8       29.43F
DICKINSON      CLOUDY    51  48  89 N10       29.41F
BEACH          MOCLDY    48  48 100 CALM      29.46R
TIOGA          CLOUDY    52  52 100 SE17      29.39F
WATFORD CITY   MOCLDY    52  52 100 SE10      29.38F
BISMARCK       LGT RAIN  56  47  71 SE10      29.46S
GRAND FORKS    PTCLDY    51  43  74 SE10      29.60F
FARGO          PTCLDY    53  42  66 SE13      29.60F
BUFFALO SD       N/A     52  43  71 NE20      29.32F
RAPID CITY     CLEAR     61  52  72 NW24G32   29.37R
$$

REGIONAL REPORTS...WYOMING/IDAHO/WASHINGTON

CITY           SKY/WX    TMP DP  RH WIND       PRES   REMARKS
GILLETTE       CLEAR     40  36  86 S3        29.51R
SHERIDAN       CLEAR     51  28  41 NW17      29.54R
BUFFALO WY     CLEAR     53  30  41 NW12      29.54S
CODY           CLEAR     48  18  30 NW8       29.56S
YELLOWSTONE LA   N/A     37  11  34 VRB6      29.66R
IDAHO FALLS    CLOUDY    43  28  55 NW7       29.60R
SALMON         CLEAR     45  25  45 N9        29.72S
BOISE          CLEAR     52  29  41 NW13      29.71R
SPOKANE        PTCLDY    50  36  58 W3        29.75F
$$

REGIONAL REPORTS...ALBERTA

CITY           SKY/WX    TMP DP  RH WIND       PRES   REMARKS
CALGARY        MOCLDY    50  39  66 NW29G37   29.56R
LETHBRIDGE     LGT RAIN  48  45  87 NW22G33   29.51R
MEDICINE HAT   CLOUDY    50  46  87 NW23G40   29.26R
WATERTON GATE    N/A     39  36  87 SW15G24     N/A  WCI  31
CARDSTON         N/A     43  39  87 NW14G21     N/A
MILK RIVER       N/A     45  43  93 NW35G44     N/A
ONEFOUR          N/A     45  45 100 NW32G41     N/A
$$

REGIONAL REPORTS...SASKATCHEWAN

CITY           SKY/WX    TMP DP  RH WIND       PRES   REMARKS
SWIFT CURRENT  CLOUDY    45  36  70 SW16      29.16F
REGINA         PTCLDY    45  34  65 S8        29.25F
SASKATOON      LGT RAIN  46  45  93 SE7       29.19F
CYPRESS HILLS    N/A     43  41  93 NW13G23     N/A
ROCKGLEN         N/A     41  28  60 SW17        N/A
ASSINIBOIA       N/A     50  46  87 N22G29      N/A
$$



USA.gov is the U.S. government's official web portal to all federal, state and local government web resources and services.